Location: Newark
(43.0000°N, 1.6781°W)
Time: 15:29:57
(UTC+00:00)

Vanguard 3 - All Passes

Search period start: 11 April 2021 00:00
Search period end: 21 April 2021 00:00
Orbit: 508 x 3262 km, 33.3° (Epoch: 10 April)

Date Brightness Start Highest point End Pass type
(mag) Time Alt. Az. Time Alt. Az. Time Alt. Az.
11 Apr - 04:02:10 10° S 04:04:14 14° SSE 04:06:33 10° ESE visible
11 Apr - 06:10:47 10° SW 06:14:48 31° S 06:20:46 10° ESE daylight
11 Apr - 08:21:03 10° WSW 08:26:19 29° S 08:34:33 10° SE daylight
11 Apr - 10:33:36 10° WSW 10:38:50 17° SSW 10:45:43 10° S daylight
12 Apr - 04:58:04 10° SW 05:01:17 23° SSE 05:05:24 10° ESE visible
12 Apr - 07:07:51 10° WSW 07:12:16 30° S 07:18:59 10° SE daylight
12 Apr - 09:19:05 10° WSW 09:24:12 21° SSW 09:31:29 10° SSE daylight
13 Apr - 03:45:44 10° SSW 03:47:54 15° SSE 03:50:15 10° SE visible
13 Apr - 05:54:52 10° SW 05:58:31 28° S 06:03:40 10° ESE daylight
13 Apr - 08:05:23 10° WSW 08:09:55 24° SSW 08:16:34 10° SE daylight
13 Apr - 10:19:28 10° SW 10:22:14 12° SSW 10:25:25 10° S daylight
14 Apr - 04:41:59 10° SW 04:45:00 22° S 04:48:42 10° ESE visible
14 Apr - 06:52:05 10° WSW 06:55:58 25° S 07:01:31 10° SE daylight
14 Apr - 09:03:57 10° SW 09:07:45 15° SSW 09:12:39 10° SSE daylight
15 Apr - 03:29:17 10° SSW 03:31:36 16° SSE 03:34:02 10° SE visible
15 Apr - 05:38:58 10° SW 05:42:17 24° S 05:46:37 10° SE daylight
15 Apr - 07:49:54 10° SW 07:53:35 18° SSW 07:58:31 10° SSE daylight
16 Apr - 02:17:18 10° S 02:18:07 11° SSE 02:18:54 10° SSE visible
16 Apr - 04:25:53 10° SW 04:28:47 21° S 04:32:06 10° ESE visible
16 Apr - 06:36:24 10° WSW 06:39:42 20° S 06:44:04 10° SE daylight
16 Apr - 08:50:18 10° SSW 08:51:20 10° SSW 08:52:28 10° SSW daylight
17 Apr - 03:12:47 10° SSW 03:15:20 17° S 03:17:52 10° SE visible
17 Apr - 05:23:06 10° SW 05:26:03 21° S 05:29:41 10° SE daylight
17 Apr - 07:34:49 10° SW 07:37:16 13° SSW 07:40:12 10° SSE daylight
18 Apr - 01:59:42 10° SSW 02:01:49 13° SSE 02:03:46 10° SE visible
18 Apr - 04:09:45 10° SW 04:12:33 20° S 04:15:34 10° SE visible
18 Apr - 06:20:52 10° SW 06:23:27 16° S 06:26:34 10° SSE daylight
19 Apr - 00:47:20 10° S 00:48:10 10° SSE 00:48:56 10° SSE night (unlit)
19 Apr - 02:56:15 10° SW 02:59:06 19° S 03:01:47 10° SE visible
19 Apr - 05:07:14 10° SW 05:09:50 18° S 05:12:47 10° SE daylight
20 Apr - 01:42:31 10° SSW 01:45:34 17° S 01:48:10 10° SE night (unlit)
20 Apr - 03:53:33 10° SW 03:56:21 20° S 03:59:10 10° SE visible
20 Apr - 06:05:44 10° SW 06:07:11 12° SSW 06:08:46 10° S daylight
